Weather History for Split Airport, Croatia

Change the Weather History Date:

Saturday, November 3, 2012

  Actual Average Record
Temperature  
Mean Temperature 60 °F -  
Max Temperature 69 °F - - ()
Min Temperature 50 °F - - ()
Degree Days  
Heating Degree Days 6    
Growing Degree Days 10 (Base 50)    
Moisture  
Dew Point 55 °F    
Average Humidity 83    
Maximum Humidity 94    
Minimum Humidity 64    
Precipitation  
Precipitation 0.00 in - - ()
Sea Level Pressure  
Sea Level Pressure 30.02 in    
Wind  
Wind Speed 2 mph ()    
Max Wind Speed 8 mph    
Max Gust Speed -    
Visibility 7.7 miles    
Events      
T = Trace of Precipitation, MM = Missing Value Source: Averaged Metar Reports

Daily Weather History Graph

Daily Weather History Graph

Search for Another Location

Airport:

Trip Planner

Search our weather history database for the weather conditions in past years. The results will help you decide how hot, cold, wet, or windy it might be!

Date:

Astronomy

Nov. 03, 2012 Rise Set
Actual Time 6:33 AM CET 4:42 PM CET
Civil Twilight 6:03 AM CET 5:12 PM CET
Nautical Twilight 5:29 AM CET 5:46 PM CET
Astronomical Twilight 4:55 AM CET 6:20 PM CET
Moon 8:04 PM CET (11/3) 10:28 AM CET (11/3)
Length of Visible Light 11h 09m
Length of Day
10h 09m
Waning Gibbous, 82% of the Moon is Illuminated
Nov 3
Waning Gibbous
Nov 7
Last Quarter
Nov 13
New
Nov 20
First Quarter
Nov 28
Full

Hourly Weather History & Observations

Time (CET) Temp. Dew Point Humidity Pressure Visibility Wind Dir Wind Speed Gust Speed Precip Events Conditions
12:00 AM 53.6 °F 50.0 °F 88% 29.98 in - Variable 1.2 mph - N/A   Clear
12:30 AM 53.6 °F 50.0 °F 88% 29.98 in - Calm Calm - N/A   Clear
1:00 AM 53.6 °F 50.0 °F 88% 29.98 in - Calm Calm - N/A   Clear
1:30 AM 53.6 °F 50.0 °F 88% 30.01 in - Variable 1.2 mph - N/A   Clear
2:00 AM 53.6 °F 50.0 °F 88% 30.01 in - Variable 3.5 mph - N/A   Clear
2:30 AM 51.8 °F 50.0 °F 94% 30.01 in - North 5.8 mph - N/A   Clear
3:00 AM 53.6 °F 51.8 °F 94% 30.01 in - Variable 2.3 mph - N/A   Clear
3:30 AM 51.8 °F 48.2 °F 88% 30.01 in - NNW 5.8 mph - N/A   Clear
4:00 AM 51 °F 49 °F 91% 30.02 in 12 mi Calm Calm - -  
4:00 AM 51.8 °F 50.0 °F 94% 30.01 in - Variable 2.3 mph - N/A   Clear
4:30 AM 51.8 °F 50.0 °F 94% 30.01 in - Variable 2.3 mph - N/A   Clear
5:00 AM 51.8 °F 50.0 °F 94% 30.01 in - Variable 3.5 mph - N/A   Clear
5:30 AM 51.8 °F 50.0 °F 94% 30.01 in - Variable 3.5 mph - N/A   Clear
6:00 AM 50.0 °F 48.2 °F 94% 30.01 in 6.2 mi Variable 3.5 mph - N/A   Partly Cloudy
6:30 AM 51.8 °F 50.0 °F 94% 30.01 in 6.2 mi Variable 1.2 mph - N/A   Partly Cloudy
7:00 AM 53.6 °F 51.8 °F 94% 30.01 in 6.2 mi Calm Calm - N/A   Partly Cloudy
7:30 AM 53.6 °F 51.8 °F 94% 30.01 in 6.2 mi Calm Calm - N/A   Partly Cloudy
8:00 AM 55.4 °F 53.6 °F 94% 30.04 in - Calm Calm - N/A   Clear
8:30 AM 57.2 °F 55.4 °F 94% 30.04 in 6.2 mi Calm Calm - N/A   Partly Cloudy
9:00 AM 60.8 °F 57.2 °F 88% 30.04 in 6.2 mi Variable 3.5 mph - N/A   Partly Cloudy
9:30 AM 64.4 °F 57.2 °F 77% 30.04 in - Variable 3.5 mph - N/A   Clear
10:00 AM 65 °F 56 °F 66% 30.05 in 19 mi Calm Calm - -   Clear
10:00 AM 64.4 °F 57.2 °F 77% 30.04 in - Variable 1.2 mph - N/A   Clear
10:30 AM 66.2 °F 55.4 °F 68% 30.04 in 6.2 mi Variable 2.3 mph - N/A   Partly Cloudy
11:00 AM 66.2 °F 55.4 °F 68% 30.04 in 6.2 mi Variable 1.2 mph - N/A   Partly Cloudy
11:30 AM 66.2 °F 55.4 °F 68% 30.04 in - Calm Calm - N/A   Clear
12:00 PM 66.2 °F 57.2 °F 73% 30.01 in - Variable 3.5 mph - N/A   Clear
12:30 PM 68.0 °F 57.2 °F 68% 30.01 in - Variable 2.3 mph - N/A   Clear
1:00 PM 69 °F 59 °F 64% 30.03 in 19 mi East 6.7 mph - -   Scattered Clouds
1:00 PM 69.8 °F 59.0 °F 68% 30.01 in 6.2 mi East 6.9 mph - N/A   Partly Cloudy
1:30 PM 68.0 °F 59.0 °F 73% 30.01 in 6.2 mi ESE 8.1 mph - N/A   Scattered Clouds
2:00 PM 68.0 °F 59.0 °F 73% 30.01 in 6.2 mi ESE 5.8 mph - N/A   Scattered Clouds
2:30 PM 66.2 °F 59.0 °F 78% 30.01 in 6.2 mi ESE 5.8 mph - N/A   Partly Cloudy
3:00 PM 66.2 °F 59.0 °F 78% 30.01 in 6.2 mi ESE 4.6 mph - N/A   Partly Cloudy
3:30 PM 66.2 °F 59.0 °F 78% 30.01 in - Variable 3.5 mph - N/A   Clear
4:00 PM 66 °F 59 °F 70% 30.01 in 12 mi Calm Calm - -   Partly Cloudy
4:00 PM 66.2 °F 59.0 °F 78% 30.01 in 6.2 mi Variable 1.2 mph - N/A   Scattered Clouds
4:30 PM 66.2 °F 59.0 °F 78% 30.01 in 6.2 mi Variable 2.3 mph - N/A   Scattered Clouds
5:00 PM 64.4 °F 57.2 °F 77% 30.01 in 6.2 mi Variable 1.2 mph - N/A   Scattered Clouds
5:30 PM 64.4 °F 57.2 °F 77% 30.01 in 6.2 mi Variable 1.2 mph - N/A   Partly Cloudy
6:00 PM 62.6 °F 57.2 °F 82% 30.01 in 6.2 mi Variable 3.5 mph - N/A   Scattered Clouds
6:30 PM 62.6 °F 57.2 °F 82% 30.01 in 6.2 mi Variable 3.5 mph - N/A   Scattered Clouds
7:00 PM 62 °F 57 °F 78% 30.02 in 9 mi NNE 4.5 mph - -   Scattered Clouds
7:00 PM 60.8 °F 57.2 °F 88% 30.01 in - Variable 3.5 mph - N/A   Clear
7:30 PM 60.8 °F 57.2 °F 88% 30.01 in - Variable 3.5 mph - N/A   Clear
8:00 PM 60.8 °F 57.2 °F 88% 30.01 in - Variable 2.3 mph - N/A   Clear
8:30 PM 60.8 °F 57.2 °F 88% 30.01 in - NE 4.6 mph - N/A   Clear
9:00 PM 60.8 °F 57.2 °F 88% 30.04 in 6.2 mi Variable 3.5 mph - N/A   Partly Cloudy
9:30 PM 60.8 °F 57.2 °F 88% 30.04 in 6.2 mi Calm Calm - N/A   Partly Cloudy
10:00 PM 61 °F 56 °F 80% 30.04 in 9 mi North 2.2 mph - -   Partly Cloudy
10:00 PM 60.8 °F 57.2 °F 88% 30.04 in - Variable 3.5 mph - N/A   Clear
10:30 PM 60.8 °F 57.2 °F 88% 30.04 in 6.2 mi Variable 2.3 mph - N/A   Partly Cloudy
11:00 PM 60.8 °F 57.2 °F 88% 30.04 in - Variable 1.2 mph - N/A   Clear
11:30 PM 60.8 °F 57.2 °F 88% 30.04 in 6.2 mi Calm Calm - N/A   Scattered Clouds